﻿測定場所 (Monitoring sites),日付 (Measurement date),時間 (Measurement time),線量率 最大値 (max) μGy/h,線量率 最小値 (min) μGy/h,線量率 平均値 (average) μGy/h,
江戸川 (Edogawa),2015-12-20,23:01～24:00,0.0627,0.0543,0.0587,
江戸川 (Edogawa),2015-12-20,22:01～23:00,0.0625,0.0551,0.0586,
江戸川 (Edogawa),2015-12-20,21:01～22:00,0.0620,0.0551,0.0585,
江戸川 (Edogawa),2015-12-20,20:01～21:00,0.0622,0.0558,0.0583,
江戸川 (Edogawa),2015-12-20,19:01～20:00,0.0621,0.0554,0.0586,
江戸川 (Edogawa),2015-12-20,18:01～19:00,0.0633,0.0562,0.0586,
江戸川 (Edogawa),2015-12-20,17:01～18:00,0.0615,0.0554,0.0586,
江戸川 (Edogawa),2015-12-20,16:01～17:00,0.0618,0.0555,0.0585,
江戸川 (Edogawa),2015-12-20,15:01～16:00,0.0620,0.0547,0.0587,
江戸川 (Edogawa),2015-12-20,14:01～15:00,0.0624,0.0553,0.0587,
江戸川 (Edogawa),2015-12-20,13:01～14:00,0.0618,0.0545,0.0585,
江戸川 (Edogawa),2015-12-20,12:01～13:00,0.0628,0.0546,0.0590,
江戸川 (Edogawa),2015-12-20,11:01～12:00,0.0623,0.0554,0.0588,
江戸川 (Edogawa),2015-12-20,10:01～11:00,0.0625,0.0549,0.0589,
江戸川 (Edogawa),2015-12-20,09:01～10:00,0.0617,0.0539,0.0583,
江戸川 (Edogawa),2015-12-20,08:01～09:00,0.0610,0.0558,0.0585,
江戸川 (Edogawa),2015-12-20,07:01～08:00,0.0627,0.0547,0.0578,
江戸川 (Edogawa),2015-12-20,06:01～07:00,0.0612,0.0552,0.0585,
江戸川 (Edogawa),2015-12-20,05:01～06:00,0.0618,0.0534,0.0578,
江戸川 (Edogawa),2015-12-20,04:01～05:00,0.0616,0.0542,0.0576,
江戸川 (Edogawa),2015-12-20,03:01～04:00,0.0619,0.0546,0.0581,
江戸川 (Edogawa),2015-12-20,02:01～03:00,0.0605,0.0548,0.0580,
江戸川 (Edogawa),2015-12-20,01:01～02:00,0.0613,0.0543,0.0578,
江戸川 (Edogawa),2015-12-20,00:01～01:00,0.0613,0.0545,0.0580,
江戸川 (Edogawa),2015-12-19,23:01～24:00,0.0602,0.0531,0.0578,
江戸川 (Edogawa),2015-12-19,22:01～23:00,0.0622,0.0545,0.0583,
江戸川 (Edogawa),2015-12-19,21:01～22:00,0.0628,0.0546,0.0581,
江戸川 (Edogawa),2015-12-19,20:01～21:00,0.0610,0.0545,0.0581,
江戸川 (Edogawa),2015-12-19,19:01～20:00,0.0622,0.0550,0.0579,
江戸川 (Edogawa),2015-12-19,18:01～19:00,0.0618,0.0550,0.0585,
江戸川 (Edogawa),2015-12-19,17:01～18:00,0.0612,0.0547,0.0581,
江戸川 (Edogawa),2015-12-19,16:01～17:00,0.0617,0.0555,0.0585,
江戸川 (Edogawa),2015-12-19,15:01～16:00,0.0636,0.0555,0.0585,
江戸川 (Edogawa),2015-12-19,14:01～15:00,0.0622,0.0550,0.0586,
江戸川 (Edogawa),2015-12-19,13:01～14:00,0.0649,0.0541,0.0590,
江戸川 (Edogawa),2015-12-19,12:01～13:00,0.0635,0.0559,0.0589,
江戸川 (Edogawa),2015-12-19,11:01～12:00,0.0618,0.0561,0.0587,
江戸川 (Edogawa),2015-12-19,10:01～11:00,0.0612,0.0556,0.0588,
江戸川 (Edogawa),2015-12-19,09:01～10:00,0.0629,0.0547,0.0592,
江戸川 (Edogawa),2015-12-19,08:01～09:00,0.0628,0.0549,0.0594,
江戸川 (Edogawa),2015-12-19,07:01～08:00,0.0617,0.0541,0.0586,
江戸川 (Edogawa),2015-12-19,06:01～07:00,0.0621,0.0546,0.0586,
江戸川 (Edogawa),2015-12-19,05:01～06:00,0.0618,0.0559,0.0587,
江戸川 (Edogawa),2015-12-19,04:01～05:00,0.0608,0.0551,0.0581,
江戸川 (Edogawa),2015-12-19,03:01～04:00,0.0623,0.0548,0.0584,
江戸川 (Edogawa),2015-12-19,02:01～03:00,0.0612,0.0540,0.0581,
江戸川 (Edogawa),2015-12-19,01:01～02:00,0.0641,0.0562,0.0586,
江戸川 (Edogawa),2015-12-19,00:01～01:00,0.0630,0.0539,0.0585,
江戸川 (Edogawa),2015-12-18,23:01～24:00,0.0610,0.0541,0.0579,
江戸川 (Edogawa),2015-12-18,22:01～23:00,0.0614,0.0550,0.0580,
江戸川 (Edogawa),2015-12-18,21:01～22:00,0.0627,0.0552,0.0584,
江戸川 (Edogawa),2015-12-18,20:01～21:00,0.0613,0.0554,0.0582,
江戸川 (Edogawa),2015-12-18,19:01～20:00,0.0627,0.0558,0.0581,
江戸川 (Edogawa),2015-12-18,18:01～19:00,0.0619,0.0557,0.0587,
江戸川 (Edogawa),2015-12-18,17:01～18:00,0.0620,0.0559,0.0588,
江戸川 (Edogawa),2015-12-18,16:01～17:00,0.0619,0.0539,0.0586,
江戸川 (Edogawa),2015-12-18,15:01～16:00,0.0625,0.0540,0.0583,
江戸川 (Edogawa),2015-12-18,14:01～15:00,0.0614,0.0554,0.0591,
江戸川 (Edogawa),2015-12-18,13:01～14:00,0.0620,0.0563,0.0591,
江戸川 (Edogawa),2015-12-18,12:01～13:00,0.0635,0.0562,0.0594,
江戸川 (Edogawa),2015-12-18,11:01～12:00,0.0622,0.0549,0.0584,
江戸川 (Edogawa),2015-12-18,10:01～11:00,0.0627,0.0558,0.0589,
江戸川 (Edogawa),2015-12-18,09:01～10:00,0.0658,0.0549,0.0594,
江戸川 (Edogawa),2015-12-18,08:01～09:00,0.0640,0.0559,0.0592,
江戸川 (Edogawa),2015-12-18,07:01～08:00,0.0620,0.0555,0.0584,
江戸川 (Edogawa),2015-12-18,06:01～07:00,0.0619,0.0566,0.0590,
江戸川 (Edogawa),2015-12-18,05:01～06:00,0.0625,0.0558,0.0594,
江戸川 (Edogawa),2015-12-18,04:01～05:00,0.0633,0.0562,0.0596,
江戸川 (Edogawa),2015-12-18,03:01～04:00,0.0635,0.0555,0.0594,
江戸川 (Edogawa),2015-12-18,02:01～03:00,0.0629,0.0556,0.0601,
江戸川 (Edogawa),2015-12-18,01:01～02:00,0.0629,0.0560,0.0597,
江戸川 (Edogawa),2015-12-18,00:01～01:00,0.0639,0.0569,0.0599,
江戸川 (Edogawa),2015-12-17,23:01～24:00,0.0655,0.0571,0.0604,
江戸川 (Edogawa),2015-12-17,22:01～23:00,0.0648,0.0560,0.0607,
江戸川 (Edogawa),2015-12-17,21:01～22:00,0.0671,0.0596,0.0624,
江戸川 (Edogawa),2015-12-17,20:01～21:00,0.0688,0.0583,0.0648,
江戸川 (Edogawa),2015-12-17,19:01～20:00,0.0636,0.0569,0.0599,
江戸川 (Edogawa),2015-12-17,18:01～19:00,0.0632,0.0565,0.0596,
江戸川 (Edogawa),2015-12-17,17:01～18:00,0.0630,0.0563,0.0595,
江戸川 (Edogawa),2015-12-17,16:01～17:00,0.0620,0.0560,0.0590,
江戸川 (Edogawa),2015-12-17,15:01～16:00,0.0624,0.0561,0.0598,
江戸川 (Edogawa),2015-12-17,14:01～15:00,0.0630,0.0553,0.0595,
江戸川 (Edogawa),2015-12-17,13:01～14:00,0.0627,0.0567,0.0597,
江戸川 (Edogawa),2015-12-17,12:01～13:00,0.0644,0.0564,0.0598,
江戸川 (Edogawa),2015-12-17,11:01～12:00,0.0641,0.0557,0.0596,
江戸川 (Edogawa),2015-12-17,10:01～11:00,0.0627,0.0556,0.0591,
江戸川 (Edogawa),2015-12-17,09:01～10:00,0.0620,0.0563,0.0586,
江戸川 (Edogawa),2015-12-17,08:01～09:00,0.0620,0.0544,0.0581,
江戸川 (Edogawa),2015-12-17,07:01～08:00,0.0622,0.0542,0.0583,
江戸川 (Edogawa),2015-12-17,06:01～07:00,0.0620,0.0558,0.0585,
江戸川 (Edogawa),2015-12-17,05:01～06:00,0.0628,0.0540,0.0582,
江戸川 (Edogawa),2015-12-17,04:01～05:00,0.0621,0.0547,0.0584,
江戸川 (Edogawa),2015-12-17,03:01～04:00,0.0627,0.0558,0.0585,
江戸川 (Edogawa),2015-12-17,02:01～03:00,0.0625,0.0548,0.0586,
江戸川 (Edogawa),2015-12-17,01:01～02:00,0.0615,0.0559,0.0589,
江戸川 (Edogawa),2015-12-17,00:01～01:00,0.0630,0.0555,0.0589,
江戸川 (Edogawa),2015-12-16,23:01～24:00,0.0617,0.0552,0.0586,
江戸川 (Edogawa),2015-12-16,22:01～23:00,0.0611,0.0562,0.0589,
江戸川 (Edogawa),2015-12-16,21:01～22:00,0.0622,0.0544,0.0588,
江戸川 (Edogawa),2015-12-16,20:01～21:00,0.0621,0.0553,0.0585,
江戸川 (Edogawa),2015-12-16,19:01～20:00,0.0614,0.0556,0.0584,
江戸川 (Edogawa),2015-12-16,18:01～19:00,0.0612,0.0563,0.0587,
江戸川 (Edogawa),2015-12-16,17:01～18:00,0.0626,0.0558,0.0590,
江戸川 (Edogawa),2015-12-16,16:01～17:00,0.0626,0.0560,0.0591,
江戸川 (Edogawa),2015-12-16,15:01～16:00,0.0624,0.0566,0.0594,
江戸川 (Edogawa),2015-12-16,14:01～15:00,0.0621,0.0555,0.0596,
江戸川 (Edogawa),2015-12-16,13:01～14:00,0.0641,0.0566,0.0598,
江戸川 (Edogawa),2015-12-16,12:01～13:00,0.0638,0.0558,0.0601,
江戸川 (Edogawa),2015-12-16,11:01～12:00,0.0642,0.0552,0.0598,
江戸川 (Edogawa),2015-12-16,10:01～11:00,0.0626,0.0560,0.0596,
江戸川 (Edogawa),2015-12-16,09:01～10:00,0.0618,0.0569,0.0592,
江戸川 (Edogawa),2015-12-16,08:01～09:00,0.0625,0.0561,0.0592,
江戸川 (Edogawa),2015-12-16,07:01～08:00,0.0631,0.0565,0.0589,
江戸川 (Edogawa),2015-12-16,06:01～07:00,0.0624,0.0542,0.0591,
江戸川 (Edogawa),2015-12-16,05:01～06:00,0.0621,0.0556,0.0588,
江戸川 (Edogawa),2015-12-16,04:01～05:00,0.0617,0.0555,0.0587,
江戸川 (Edogawa),2015-12-16,03:01～04:00,0.0621,0.0548,0.0586,
江戸川 (Edogawa),2015-12-16,02:01～03:00,0.0614,0.0556,0.0589,
江戸川 (Edogawa),2015-12-16,01:01～02:00,0.0621,0.0557,0.0588,
江戸川 (Edogawa),2015-12-16,00:01～01:00,0.0617,0.0536,0.0587,
江戸川 (Edogawa),2015-12-15,23:01～24:00,0.0606,0.0551,0.0584,
江戸川 (Edogawa),2015-12-15,22:01～23:00,0.0624,0.0555,0.0592,
江戸川 (Edogawa),2015-12-15,21:01～22:00,0.0616,0.0559,0.0586,
江戸川 (Edogawa),2015-12-15,20:01～21:00,0.0624,0.0549,0.0584,
江戸川 (Edogawa),2015-12-15,19:01～20:00,0.0612,0.0556,0.0584,
江戸川 (Edogawa),2015-12-15,18:01～19:00,0.0627,0.0546,0.0586,
江戸川 (Edogawa),2015-12-15,17:01～18:00,0.0620,0.0545,0.0584,
江戸川 (Edogawa),2015-12-15,16:01～17:00,0.0620,0.0555,0.0589,
江戸川 (Edogawa),2015-12-15,15:01～16:00,0.0633,0.0558,0.0588,
江戸川 (Edogawa),2015-12-15,14:01～15:00,0.0623,0.0556,0.0587,
江戸川 (Edogawa),2015-12-15,13:01～14:00,0.0623,0.0562,0.0590,
江戸川 (Edogawa),2015-12-15,12:01～13:00,0.0623,0.0553,0.0589,
江戸川 (Edogawa),2015-12-15,11:01～12:00,0.0618,0.0550,0.0589,
江戸川 (Edogawa),2015-12-15,10:01～11:00,0.0629,0.0554,0.0589,
江戸川 (Edogawa),2015-12-15,09:01～10:00,0.0621,0.0552,0.0586,
江戸川 (Edogawa),2015-12-15,08:01～09:00,0.0621,0.0552,0.0586,
江戸川 (Edogawa),2015-12-15,07:01～08:00,0.0612,0.0563,0.0586,
江戸川 (Edogawa),2015-12-15,06:01～07:00,0.0613,0.0555,0.0583,
江戸川 (Edogawa),2015-12-15,05:01～06:00,0.0613,0.0546,0.0587,
江戸川 (Edogawa),2015-12-15,04:01～05:00,0.0612,0.0541,0.0587,
江戸川 (Edogawa),2015-12-15,03:01～04:00,0.0620,0.0539,0.0580,
江戸川 (Edogawa),2015-12-15,02:01～03:00,0.0633,0.0548,0.0578,
江戸川 (Edogawa),2015-12-15,01:01～02:00,0.0625,0.0539,0.0579,
江戸川 (Edogawa),2015-12-15,00:01～01:00,0.0628,0.0549,0.0580,
江戸川 (Edogawa),2015-12-14,23:01～24:00,0.0626,0.0533,0.0578,
江戸川 (Edogawa),2015-12-14,22:01～23:00,0.0614,0.0544,0.0576,
江戸川 (Edogawa),2015-12-14,21:01～22:00,0.0619,0.0544,0.0583,
江戸川 (Edogawa),2015-12-14,20:01～21:00,0.0615,0.0552,0.0579,
江戸川 (Edogawa),2015-12-14,19:01～20:00,0.0611,0.0550,0.0584,
江戸川 (Edogawa),2015-12-14,18:01～19:00,0.0615,0.0555,0.0578,
江戸川 (Edogawa),2015-12-14,17:01～18:00,0.0610,0.0548,0.0581,
江戸川 (Edogawa),2015-12-14,16:01～17:00,0.0608,0.0524,0.0575,
江戸川 (Edogawa),2015-12-14,15:01～16:00,0.0626,0.0554,0.0583,
江戸川 (Edogawa),2015-12-14,14:01～15:00,0.0606,0.0543,0.0578,
江戸川 (Edogawa),2015-12-14,13:01～14:00,0.0619,0.0559,0.0581,
江戸川 (Edogawa),2015-12-14,12:01～13:00,0.0614,0.0551,0.0581,
江戸川 (Edogawa),2015-12-14,11:01～12:00,0.0617,0.0547,0.0586,
江戸川 (Edogawa),2015-12-14,10:01～11:00,0.0627,0.0540,0.0583,
江戸川 (Edogawa),2015-12-14,09:01～10:00,0.0624,0.0549,0.0582,
江戸川 (Edogawa),2015-12-14,08:01～09:00,0.0608,0.0560,0.0580,
江戸川 (Edogawa),2015-12-14,07:01～08:00,0.0626,0.0549,0.0583,
江戸川 (Edogawa),2015-12-14,06:01～07:00,0.0620,0.0553,0.0582,
江戸川 (Edogawa),2015-12-14,05:01～06:00,0.0622,0.0548,0.0583,
江戸川 (Edogawa),2015-12-14,04:01～05:00,0.0622,0.0546,0.0586,
江戸川 (Edogawa),2015-12-14,03:01～04:00,0.0623,0.0547,0.0582,
江戸川 (Edogawa),2015-12-14,02:01～03:00,0.0617,0.0542,0.0581,
江戸川 (Edogawa),2015-12-14,01:01～02:00,0.0628,0.0552,0.0583,
江戸川 (Edogawa),2015-12-14,00:01～01:00,0.0621,0.0553,0.0581,
